Home > Weather > Salisbury > Past weeks

Flag for United Kingdom Past Weather in Salisbury, England, United Kingdom — Yesterday and Last 2 Weeks

Now
48 °F

Passing clouds.


Feels Like: 46 °F
Forecast: 53 / 67 °F
Wind: 5 mph from Southwest

Location: Boscombe Down

Current Time: Jun 25, 2016 at 4:27:24 AM

Latest Report: Jun 25, 2016 at 3:50 AM


Visibility: 4 mi

Pressure: 30.04 "Hg

Humidity: 100%

Dew Point: 48 °F

Location of SalisburyLocation

Past Weather in Salisbury — Graph

°F

Salisbury Temperature Yesterday

Maximum temperature yesterday: 64 °F (at 10:50 AM)
Minimum temperature yesterday: 50 °F (at 3:50 AM)
Average temperature yesterday: 57 °F

High & Low Weather Summary for the Past Weeks

 TemperatureHumidityPressure
High70 °F (Jun 10, 12:50 PM)100% (Jun 11, 3:50 AM)30.24 "Hg (Jun 11, 3:50 AM)
Low48 °F (Jun 19, 2:50 AM)46% (Jun 16, 2:50 PM)29.39 "Hg (Jun 14, 3:50 PM)
Average59 °F86%29.84 "Hg
* Reported Jun 10 2:50 AM — Jun 25 2:50 AM, Salisbury, Weather by CustomWeather, © 2016

Note: Actual official high and low records may vary slightly from our data, if they occured in-between our weather recording intervals... More about our weather records

Advertising

Salisbury Weather History for the Previous 24 Hours

Scroll right to see more
 ConditionsComfort  
Time TempWeatherWind HumidityBarometerVisibility
2:50 AM
Sat, Jun 25
48 °FFog.6 mph100%30.04 "Hg0 mi
1:50 AM48 °FCool.2 mph100%30.04 "HgN/A
12:50 AM50 °FCool.8 mph94%30.07 "HgN/A
11:50 PM
Fri, Jun 24
52 °FPassing clouds.6 mph94%30.07 "HgN/A
10:50 PM54 °FCool.5 mph88%30.07 "HgN/A
9:50 PM54 °FPassing clouds.7 mph94%30.07 "HgN/A
8:50 PM57 °FPartly sunny.2 mph88%30.04 "HgN/A
7:50 PM57 °FRain showers. Partly sunny.7 mph88%30.07 "HgN/A
6:50 PM59 °FOvercast.6 mph82%30.04 "HgN/A
5:50 PM59 °FPartly sunny.7 mph77%30.04 "HgN/A
4:50 PM59 °FPartly sunny.14 mph77%30.07 "HgN/A
3:50 PM64 °FScattered clouds.18 mph68%30.04 "HgN/A
2:50 PM64 °FPassing clouds.17 mph73%30.04 "HgN/A
1:50 PM61 °FSprinkles. Broken clouds.15 mph83%30.07 "Hg5 mi
1:03 PM61 °FSprinkles. Broken clouds.14 mph83%30.07 "HgN/A
12:50 PM63 °FSprinkles. Broken clouds.16 mph73%30.07 "HgN/A
11:50 AM64 °FPartly sunny.13 mph60%30.07 "HgN/A
10:50 AM64 °FScattered clouds.10 mph68%30.07 "HgN/A
9:50 AM63 °FScattered clouds.10 mph73%30.07 "HgN/A
8:50 AM61 °FScattered clouds.10 mph83%30.07 "HgN/A
7:50 AM57 °FPassing clouds.8 mph88%30.07 "HgN/A
6:50 AM54 °FPassing clouds.6 mph94%30.07 "HgN/A
5:50 AM50 °FFog.3 mph100%30.07 "Hg6 mi
4:50 AM50 °FCool.3 mph100%30.07 "HgN/A
Weather by CustomWeather, © 2016

See weather overviewHow to use our weather pages